Weather History for George, South Africa

Change the Weather History Date:

Sunday, January 26, 2014

  Actual Average Record
Temperature  
Mean Temperature 66 °F -  
Max Temperature 75 °F 74 °F 75 °F (2014)
Min Temperature 57 °F 59 °F 57 °F (2014)
Cooling Degree Days 1    
Growing Degree Days 16 (Base 50)    
Moisture  
Dew Point 60 °F    
Average Humidity 72    
Maximum Humidity 88    
Minimum Humidity 43    
Precipitation  
Precipitation 0.00 in - - ()
Sea Level Pressure  
Sea Level Pressure 29.99 in    
Wind  
Wind Speed 6 mph ()    
Max Wind Speed 18 mph    
Max Gust Speed -    
Visibility 7.9 miles    
Events      
Averages and records for this station are not official NWS values.
T = Trace of Precipitation, MM = Missing Value Source: Averaged Metar Reports

Daily Weather History Graph

Daily Weather History Graph

Search for Another Location

Airport:

Trip Planner

Search our weather history database for the weather conditions in past years. The results will help you decide how hot, cold, wet, or windy it might be!

Date:

Astronomy

Jan. 26, 2014 Rise Set
Actual Time 5:45 AM SAST 7:39 PM SAST
Civil Twilight 5:18 AM SAST 8:07 PM SAST
Nautical Twilight 4:44 AM SAST 8:40 PM SAST
Astronomical Twilight 4:08 AM SAST 9:16 PM SAST
Moon 1:05 AM SAST (1/26) 3:17 PM SAST (1/26)
Length of Visible Light 14h 49m
Length of Day
13h 54m
Waning Crescent, 27% of the Moon is Illuminated
Jan 26
Waning Crescent
Jan 30
New
Feb 6
First Quarter
Feb 15
Full
Feb 22
Last Quarter

Hourly Weather History & Observations

Time (SAST) Temp. Dew Point Humidity Pressure Visibility Wind Dir Wind Speed Gust Speed Precip Events Conditions
12:00 AM 60.8 °F 55.4 °F 82% 30.04 in 6.2 mi NNW 3.5 mph - N/A   Scattered Clouds
2:00 AM 59 °F 55 °F 82% 30.02 in 6 mi NNW 2.3 mph - -  
3:00 AM 60.8 °F 55.4 °F 82% 30.01 in 6.2 mi North 3.5 mph - N/A   Mostly Cloudy
5:00 AM 59 °F 55 °F 81% 30.01 in 12 mi NNE 3.5 mph - -   Partly Cloudy
5:00 AM 59.0 °F 55.4 °F 88% 30.01 in 6.2 mi NNE 3.5 mph - N/A   Scattered Clouds
6:00 AM 59.0 °F 55.4 °F 88% 30.01 in 6.2 mi Variable 1.2 mph - N/A   Partly Cloudy
7:00 AM 62.6 °F 57.2 °F 82% 30.01 in 6.2 mi Variable 1.2 mph - N/A   Partly Cloudy
8:00 AM 68 °F 61 °F 71% 30.03 in 12 mi East 5.8 mph - -   Scattered Clouds
8:00 AM 68.0 °F 60.8 °F 78% 30.01 in 6.2 mi East 5.8 mph - N/A   Partly Cloudy
9:00 AM 71.6 °F 59.0 °F 64% 30.01 in 6.2 mi ESE 8.1 mph - N/A   Partly Cloudy
10:00 AM 73.4 °F 59.0 °F 61% 30.01 in 6.2 mi ESE 5.8 mph - N/A   Partly Cloudy
11:00 AM 74 °F 56 °F 43% 30.02 in 12 mi SE 10.4 mph - -   Scattered Clouds
11:00 AM 75.2 °F 60.8 °F 61% 30.01 in 6.2 mi SE 9.2 mph - N/A   Partly Cloudy
12:00 PM 73.4 °F 60.8 °F 65% 30.01 in 6.2 mi SE 10.4 mph - N/A   Partly Cloudy
1:00 PM 73.4 °F 64.4 °F 73% 30.01 in 6.2 mi SSE 12.7 mph - N/A   Scattered Clouds
2:00 PM 75 °F 63 °F 57% 30.00 in 12 mi SE 11.5 mph - -   Partly Cloudy
2:00 PM 75.2 °F 64.4 °F 69% 29.98 in 6.2 mi SE 10.4 mph - N/A   Scattered Clouds
3:00 PM 75.2 °F 60.8 °F 61% 29.98 in 6.2 mi ESE 10.4 mph - N/A   Partly Cloudy
4:00 PM 75.2 °F 62.6 °F 65% 29.95 in 6.2 mi SE 13.8 mph - N/A   Partly Cloudy
5:00 PM 74 °F 63 °F 60% 29.93 in 19 mi ESE 18.4 mph - -   Scattered Clouds
5:00 PM 75.2 °F 64.4 °F 69% 29.95 in 6.2 mi ESE 16.1 mph - N/A   Partly Cloudy
6:00 PM 73.4 °F 66.2 °F 78% 29.92 in 6.2 mi ESE 13.8 mph - N/A   Scattered Clouds
7:00 PM 71.6 °F 64.4 °F 78% 29.92 in 6.2 mi East 13.8 mph - N/A   Partly Cloudy
8:00 PM 69 °F 65 °F 81% 29.93 in 12 mi ESE 13.8 mph - -   Scattered Clouds
8:00 PM 69.8 °F 64.4 °F 83% 29.92 in 6.2 mi ESE 12.7 mph - N/A   Partly Cloudy